Weather History for Glens Falls, NY

Change the Weather History Date:

Thursday, December 20, 2012

  Actual Average Record
Temperature  
Mean Temperature 29 °F 23 °F  
Max Temperature 35 °F 32 °F 60 °F (1957)
Min Temperature 22 °F 14 °F -23 °F (1980)
Degree Days  
Heating Degree Days 36 42  
Month to date heating degree days 628 758  
Since 1 July heating degree days 2151 2456  
Cooling Degree Days 0 0  
Month to date cooling degree days 0 0  
Year to date cooling degree days 533 352  
Moisture  
Dew Point 25 °F    
Average Humidity 82    
Maximum Humidity 100    
Minimum Humidity 64    
Precipitation  
Precipitation 0.08 in 0.09 in 1.44 in (1957)
Month to date precipitation 2.33 2.07  
Year to date precipitation 33.70 38.08  
Sea Level Pressure  
Sea Level Pressure 30.09 in    
Wind  
Wind Speed 2 mph (NNE)    
Max Wind Speed 10 mph    
Max Gust Speed 14 mph    
Visibility 8 miles    
Events Snow    
T = Trace of Precipitation, MM = Missing Value Source: NWS Daily Summary

Daily Weather History Graph

Daily Weather History Graph

Search for Another Location

Airport:

Trip Planner

Search our weather history database for the weather conditions in past years. The results will help you decide how hot, cold, wet, or windy it might be!

Date:

Astronomy

Dec. 20, 2012 Rise Set
Actual Time 7:23 AM EST 4:21 PM EST
Civil Twilight 6:50 AM EST 4:53 PM EST
Nautical Twilight 6:14 AM EST 5:30 PM EST
Astronomical Twilight 5:39 AM EST 6:04 PM EST
Moon 11:46 AM EST (12/20) No Moon Set
Length of Visible Light 10h 03m
Length of Day
8h 57m
First Quarter, 55% of the Moon is Illuminated
Dec 20
First Quarter
Dec 28
Full
Jan 4
Last Quarter
Jan 11
New
Jan 18
First Quarter

Hourly Weather History & Observations

Time (EST) Temp. Windchill Dew Point Humidity Pressure Visibility Wind Dir Wind Speed Gust Speed Precip Events Conditions
12:53 AM 33.1 °F 27.7 °F 23.0 °F 66% 30.14 in 10.0 mi NW 5.8 mph - N/A   Clear
1:53 AM 32.0 °F 24.2 °F 23.0 °F 69% 30.16 in 10.0 mi NW 9.2 mph - N/A   Clear
2:53 AM 30.9 °F 25.2 °F 21.9 °F 69% 30.16 in 10.0 mi North 5.8 mph - N/A   Clear
3:53 AM 28.0 °F - 21.0 °F 75% 30.17 in 10.0 mi Calm Calm - N/A   Clear
4:53 AM 26.1 °F - 21.0 °F 81% 30.18 in 10.0 mi Calm Calm - N/A   Clear
5:53 AM 25.0 °F - 21.9 °F 88% 30.20 in 10.0 mi Calm Calm - N/A   Clear
6:30 AM 23.0 °F 18.4 °F 19.4 °F 86% 30.19 in 10.0 mi North 3.5 mph - N/A   Mostly Cloudy
6:53 AM 23.0 °F - 19.9 °F 88% 30.22 in 10.0 mi Calm Calm - N/A   Scattered Clouds
7:29 AM 21.2 °F - 21.2 °F 100% 30.22 in 10.0 mi Calm Calm - N/A   Mostly Cloudy
7:53 AM 25.0 °F - 24.1 °F 96% 30.25 in 10.0 mi Calm Calm - N/A   Overcast
8:53 AM 30.0 °F - 25.0 °F 82% 30.26 in 10.0 mi Calm Calm - N/A   Overcast
9:53 AM 30.9 °F 27.5 °F 25.0 °F 79% 30.25 in 10.0 mi North 3.5 mph - N/A   Overcast
10:53 AM 33.1 °F 26.9 °F 24.1 °F 70% 30.22 in 10.0 mi NE 6.9 mph - N/A   Overcast
11:53 AM 33.1 °F 27.7 °F 25.0 °F 72% 30.20 in 10.0 mi NE 5.8 mph - N/A   Overcast
12:53 PM 33.1 °F 30.0 °F 25.0 °F 72% 30.15 in 10.0 mi NE 3.5 mph - N/A   Overcast
1:37 PM 33.8 °F 29.6 °F 24.8 °F 70% 30.10 in 10.0 mi North 4.6 mph - N/A   Scattered Clouds
1:53 PM 35.1 °F 30.1 °F 26.1 °F 70% 30.12 in 10.0 mi NNE 5.8 mph - N/A   Clear
2:53 PM 34.0 °F - 25.0 °F 70% 30.12 in 10.0 mi Calm Calm - N/A   Clear
3:53 PM 34.0 °F - 26.1 °F 73% 30.11 in 10.0 mi Calm Calm - N/A   Clear
4:53 PM 32.0 °F - 25.0 °F 75% 30.07 in 10.0 mi Calm Calm - N/A   Clear
5:53 PM 30.9 °F - 27.0 °F 85% 30.05 in 10.0 mi Calm Calm - N/A   Clear
6:53 PM 30.0 °F 25.2 °F 27.0 °F 88% 30.06 in 10.0 mi SW 4.6 mph - N/A   Clear
7:53 PM 30.9 °F - 27.0 °F 85% 30.04 in 10.0 mi Calm Calm - N/A   Clear
8:53 PM 30.0 °F - 28.0 °F 92% 30.01 in 10.0 mi Calm Calm - N/A   Mostly Cloudy
9:53 PM 30.9 °F - 28.0 °F 89% 29.99 in 10.0 mi Calm Calm - N/A   Overcast
10:27 PM 32.0 °F - 26.6 °F 80% 29.94 in 2.5 mi Calm Calm - 0.00 in Snow Light Snow
10:36 PM 30.2 °F - 28.4 °F 93% 29.94 in 1.2 mi Calm Calm - 0.00 in Snow Light Snow
10:53 PM 30.0 °F - 28.0 °F 92% 29.97 in 1.0 mi Calm Calm - 0.01 in Snow Light Snow
11:13 PM 30.2 °F 26.7 °F 28.4 °F 93% 29.92 in 0.8 mi ENE 3.5 mph - 0.03 in Snow Light Snow
11:33 PM 30.2 °F 25.4 °F 28.4 °F 93% 29.89 in 0.8 mi ENE 4.6 mph - 0.06 in Snow Light Snow
11:41 PM 30.2 °F 25.4 °F 28.4 °F 93% 29.88 in 1.0 mi ENE 4.6 mph - 0.06 in Snow Light Snow
11:49 PM 30.2 °F 26.7 °F 28.4 °F 93% 29.88 in 1.0 mi East 3.5 mph - 0.07 in Snow Light Snow
11:53 PM 30.9 °F 26.2 °F 30.0 °F 96% 29.90 in 1.0 mi ENE 4.6 mph - 0.07 in Snow Light Snow